SL-16 DEB

Satellite information

Favourite Embed

Satellite Type and Status

DEBRISIN ORBIT

Key statistics

Satellite SL-16 DEB at a glance.

Uptime

13990

Days in orbit

Revolutions

≈ 13.8

Per day

Orbit

LEO

Low Earth Orbit

Inclination

71.0

Latest

Satellite identification and parameters

Extended collection of information and parameters for SL-16 DEB.

Object identification

Identified? True

Debris? True

Object name: SL-16 DEB

International designator: 1987-027F

Object number (NORAD): 18550

Object ID (CCSDS): 18550

Country: COMMONWEALTH OF INDEPENDENT STATES (CIS)

Current information (Y/N): Y

RCS size: SMALL

Orbital parameters

Period: 104.411 minutes

Inclination: 71.0241 deg

SMA: 7344.996 km

Apoapsis: 1101.128 km

Periapsis: 832.594 km

RAAN: 133.8733 deg

Eccentricy: 0.0182801

Argument of periapsis: 217.2698 deg

Mean anomaly: 141.5607 deg

Mean motion: 13.79162427 rev/day

Mean motion (dot): 0.00000113 rev/day2

B* drag term: 0.00013522 1/REarth

Two-line elements (TLE)

Creation date: July 5, 2025, 5:45 p.m.

Reference frame: TEME

Reference center: EARTH

Epoch: July 5, 2025, 5:55 a.m. UTC

TLE line 0: 0 SL-16 DEB

TLE line 1: 1 18550U 87027F 25186.24692469 .00000113 00000-0 13522-3 0 9998

TLE line 2: 2 18550 71.0241 133.8733 0182801 217.2698 141.5607 13.79162427926147

Live tracking on map

Real-time ground track for satellite SL-16 DEB.

In-orbit conjunctions

A list of the most updated potential collisions computed for object SL-16 DEB.

Target Orbit TCA Probability of collision Miss distance Type
NOAA 16 DEB SSO 2025-04-18 10:01:15 0.0001639974 184.0 (m) DEBRIS
SL-3 R/B LEO 2025-04-15 20:50:22 0.0001063696 217.0 (m) ROCKET BODY

Associated space launch

Dynamic simulator of the Tselina-2 ELINT satellite

SL-16 DEB was lifted into orbit during the mission ‘Zenit-2 | GVM Tselina-2’, on board a Zenit-2 space rocket.

The launch took place on March 18, 1987, 8:30 a.m. from 45/1.

For more information about the launch, click the button.

Launch to space Zenit-2 | GVM Tselina-2
Zenit-2 | GVM Tselina-2

Agency: N/A

Status: Launch Successful

Launch date: March 18, 1987, 8:30 a.m. UTC

Rocket: Zenit-2

Launch pad: 45/1

Location: Baikonur Cosmodrome, Republic of Kazakhstan

...

Latest news about this satellite

There are no fresh news available about this satellite. Check back as we update our databases every day.


Newsletter sign-up

Weekly statistics, charts and insights to help you stay on top of the space industry.